Regional Weather Roundup
Issued by NWS Cleveland, OH

Home | Current Version | Previous Version | Text Only | Print | Product List | Glossary Off
Versions: 1 2 3 4 5 6 7 8 9 10 11 12 13 14 15 16 17 18 19 20 21 22 23 24 25 26 27 28 29 30 31 32 33 34 35 36 37 38 39 40 41 42 43 44 45 46 47 48 49 50

000
ASUS41 KCLE 270210
RWRCLE
OHIO REGIONAL WEATHER ROUNDUP
NATIONAL WEATHER SERVICE CLEVELAND, OH
1000 PM EDT WED APR 26 2017

NOTE: "FAIR" INDICATES FEW OR NO CLOUDS BELOW 12,000 FEET WITH NO
SIGNIFICANT WEATHER AND/OR OBSTRUCTIONS TO VISIBILITY.

OHZ001>008-015>018-024>027-034-035-043-044-270300-
   NORTHWEST OHIO

CITY           SKY/WX    TMP DP  RH WIND       PRES   REMARKS
DEFIANCE       CLOUDY    76  58  53 S12       29.55R
FINDLAY        CLEAR     71  53  52 S10       29.57R
TOLEDO EXPRESS PTCLDY    75  57  53 S7        29.55R
TOLEDO EXEC    CLEAR     74  57  55 S10       29.57R
LIMA           PTCLDY    73  54  51 S8        29.58R
$$

OHZ009>014-019>023-028>033-038-089-270300-
   NORTHEAST OHIO

CITY           SKY/WX    TMP DP  RH WIND       PRES   REMARKS
CLE-HOPKINS    CLOUDY    75  51  43 S10       29.64R
CLE-LAKEFRONT  PTCLDY    77  51  40 SE8       29.61R
CUY CO. ARPT   PTCLDY    75  57  53 S9        29.64R
LORAIN-ELYRIA  CLEAR     71  52  50 S10       29.62R
ASHTABULA      CLEAR     70  56  61 SE8       29.67R
AKRON-CANTON   CLEAR     71  50  47 S9        29.66R
WOOSTER        CLEAR     70  51  51 S10       29.65R
MANSFIELD      CLEAR     70  51  51 SE9       29.64R
YOUNGSTOWN     PTCLDY    71  56  58 SE8       29.68R
$$

OHZ042-051>053-060>062-070>072-077>081-270300-
  SOUTHWEST OHIO

CITY           SKY/WX    TMP DP  RH WIND       PRES   REMARKS
CINC-COVINGTON CLOUDY    70  52  52 S7        29.58S
CINC-LUNKEN    CLOUDY    65  59  81 CALM      29.58S
HAMILTON       PTCLDY    71  53  52 CALM      29.59R
DAYTON         CLOUDY    74  49  41 S14       29.60R
WRIGHT-PAT AFB CLOUDY    74  47  38 S10       29.60R
DAYTON GENERAL CLOUDY    71  50  47 S8        29.59R
WILMINGTON     CLOUDY    68  53  58 S3        29.61S
$$

OHZ036-037-039>041-045>050-054>059-063>069-073>076-082>088-270300-
  CENTRAL AND SOUTHEAST OHIO

CITY           SKY/WX    TMP DP  RH WIND       PRES   REMARKS
COLUMBUS       CLOUDY    75  51  43 SE8       29.61S
OSU AIRPORT    MOCLDY    74  53  48 S8        29.62R
BOLTON FIELD   CLOUDY    70  50  49 S12       29.63R
RICKENBACK AFB CLOUDY    71  51  50 S7        29.61S
NEWARK         CLEAR     73  51  46 S6        29.63R
MARION         PTCLDY    70  47  43 S9        29.62R
LANCASTER      CLOUDY    73  53  49 SE8       29.64R
ZANESVILLE     CLEAR     72  51  47 SE6       29.65S
NEW PHILLY     NOT AVBL
$$




USA.gov is the U.S. government's official web portal to all federal, state and local government web resources and services.